This is the latest recevied weather packets stored in our database for station/object KU9TRY. If no packets are shown the sender has not sent any weather packets the latest 10 day(s).
| Time | Temp. | Humidity | Pressure | Rain* | Wind** | Luminosity | Snow |
|---|---|---|---|---|---|---|---|
| 1777649129 | 18.33° C | 43% | 1015.9 hPa | 0 mm | - | 680 W/m² | - |
| 1777648827 | 17.78° C | 43% | 1015.9 hPa | 0 mm | - | 853 W/m² | - |
| 1777648524 | 17.78° C | 43% | 1016 hPa | 0 mm | - | 840 W/m² | - |
| 1777648221 | 17.78° C | 48% | 1015.8 hPa | 0 mm | - | 825 W/m² | - |
| 1777647915 | 17.78° C | 44% | 1015.7 hPa | 0 mm | - | 803 W/m² | - |
| 1777647613 | 17.78° C | 47% | 1015.9 hPa | 0 mm | - | 586 W/m² | - |
| 1777647309 | 17.78° C | 51% | 1015.7 hPa | 0 mm | - | 713 W/m² | - |
| 1777647007 | 17.22° C | 53% | 1015.7 hPa | 0 mm | - | 739 W/m² | - |
| 1777646703 | 16.67° C | 54% | 1016 hPa | 0 mm | - | 751 W/m² | - |
| 1777646398 | 16.67° C | 59% | 1015.9 hPa | 0 mm | - | 719 W/m² | - |
| 1777646095 | 16.11° C | 61% | 1015.8 hPa | 0 mm | - | 678 W/m² | - |
| 1777645791 | 16.11° C | 64% | 1016.1 hPa | 0 mm | - | 693 W/m² | - |
| 1777645490 | 15.56° C | 67% | 1016 hPa | 0 mm | - | 673 W/m² | - |
| 1777645184 | 15° C | 69% | 1016.1 hPa | 0 mm | - | 652 W/m² | - |
| 1777644881 | 14.44° C | 70% | 1016 hPa | 0 mm | - | 638 W/m² | - |
| 1777644579 | 14.44° C | 71% | 1015.9 hPa | 0 mm | - | 652 W/m² | - |
| 1777644274 | 13.89° C | 77% | 1016 hPa | 0 mm | - | 688 W/m² | - |
| 1777643971 | 13.33° C | 79% | 1015.9 hPa | 0 mm | - | 697 W/m² | - |
| 1777643668 | 12.78° C | 81% | 1016 hPa | 0 mm | - | 713 W/m² | - |
| 1777643366 | 12.22° C | 81% | 1015.8 hPa | 0 mm | - | 698 W/m² | - |
| 1777643062 | 11.67° C | 85% | 1016 hPa | 0 mm | - | 84 W/m² | - |
| 1777642758 | 11.67° C | 83% | 1016.1 hPa | 0 mm | - | 108 W/m² | - |
| 1777642456 | 11.11° C | 85% | 1016.2 hPa | 0 mm | - | 81 W/m² | - |
| 1777642152 | 10.56° C | 84% | 1016 hPa | 0 mm | - | 95 W/m² | - |
| 1777641849 | 10.56° C | 85% | 1016.1 hPa | 0 mm | - | 68 W/m² | - |
* Rain latest hour (hover to see other rain measurements)
** Current wind speed in m/s (hover to see current wind gust speed)